Flight Track Log - Related Links

Times and Time Zones

All times are in EDT time to prevent confusion due to time zone crossing. See the ASQ5958 flight status page for this flight to view local times or setup timezone preferences in your user account.

Time Position Orientation Groundspeed Altitude Reporting Facility
EDT Latitude Longitude Course Direction KTS MPH feet Rate Location/Type
Tue 12:16:14 PM 43.1347 -76.1336 297° West 162 186 1,600  Level Boston Center
Tue 12:17:08 PM 43.1539 -76.1858 297° West 205 236 3,100 1,774 Climbing Boston Center
Tue 12:18:09 PM 43.1506 -76.2825 267° West 259 298 5,000 1,986 Climbing Boston Center
Tue 12:19:33 PM 43.1497 -76.4025 269° West 255 293 7,900 2,042 Climbing Cleveland Center
Tue 12:20:33 PM 43.1447 -76.5025 266° West 260 299 9,900 1,450 Climbing Cleveland Center
Tue 12:21:33 PM 43.1403 -76.6108 267° West 272 313 10,800 1,050 Climbing Cleveland Center
Tue 12:22:33 PM 43.1303 -76.7481 264° West 306 352 12,000 1,150 Climbing Cleveland Center
Tue 12:23:33 PM 43.1219 -76.8739 265° West 331 381 13,100 1,350 Climbing Cleveland Center
Tue 12:24:33 PM 43.1175 -77.0022 267° West 338 389 14,700 1,300 Climbing Cleveland Center
Tue 12:25:33 PM 43.1172 -77.1303 270° West 338 389 15,700 1,000 Climbing Cleveland Center
Tue 12:26:33 PM 43.1167 -77.2497 270° West 347 399 16,700 1,000 Climbing Cleveland Center
Tue 12:27:33 PM 43.1161 -77.3806 270° West 347 399 17,700 900 Climbing Cleveland Center
Tue 12:28:33 PM 43.1156 -77.5086 270° West 347 399 18,500 850 Climbing Cleveland Center
Tue 12:29:33 PM 43.1169 -77.6422 271° West 347 399 19,400 1,000 Climbing Cleveland Center
Tue 12:30:33 PM 43.1139 -77.7733 268° West 347 399 20,500 1,050 Climbing Cleveland Center
Tue 12:31:33 PM 43.1150 -77.9069 271° West 347 399 21,500 950 Climbing Cleveland Center
Tue 12:32:33 PM 43.1117 -78.0436 268° West 352 405 22,400 950 Climbing Cleveland Center
Tue 12:33:33 PM 43.1106 -78.1772 269° West 352 405 23,400 1,000 Climbing Cleveland Center
Tue 12:34:33 PM 43.1089 -78.3111 269° West 352 405 24,400 1,000 Climbing Cleveland Center
Tue 12:35:33 PM 43.1072 -78.4419 269° West 347 399 25,400 1,000 Climbing Cleveland Center
Tue 12:36:33 PM 43.1056 -78.5700 269° West 347 399 26,400 1,000 Climbing Cleveland Center
Tue 12:37:33 PM 43.1036 -78.7008 269° West 347 399 27,400 1,000 Climbing Cleveland Center
Tue 12:38:33 PM 43.1014 -78.8261 269° West 347 399 28,400 1,000 Climbing Cleveland Center
Tue 12:39:33 PM 43.1011 -78.9483 270° West 342 394 29,400 1,091 Climbing Cleveland Center
Tue 12:39:50 PM 43.0833 -78.9667 217° Southwest 330 380 29,800 1,091 Climbing Toronto Center
Tue 12:40:50 PM 43.0833 -79.1000 270° West 320 368 30,800 1,000 Climbing Toronto Center
Tue 12:41:50 PM 43.0833 -79.2167 270° West 320 368 31,800 600 Climbing Toronto Center
Tue 12:42:50 PM 43.0833 -79.3333 270° West 320 368 32,000 100 Climbing Toronto Center
Tue 12:43:50 PM 43.0833 -79.4667 270° West 350 403 32,000  Level Toronto Center
Tue 12:44:50 PM 43.0833 -79.6167 270° West 350 403 32,000  Level Toronto Center
Tue 12:45:50 PM 43.0667 -79.7500 260° West 360 414 32,000  Level Toronto Center
Tue 12:46:50 PM 43.0667 -79.8833 270° West 360 414 32,000  Level Toronto Center
Tue 12:47:50 PM 43.0667 -80.0167 270° West 360 414 32,000  Level Toronto Center
Tue 12:48:50 PM 43.0667 -80.1500 270° West 360 414 32,000  Level Toronto Center
Tue 12:49:50 PM 43.0667 -80.3000 270° West 360 414 32,000  Level Toronto Center
Tue 12:50:50 PM 43.0500 -80.4333 260° West 360 414 32,000  Level Toronto Center
Tue 12:51:50 PM 43.0500 -80.5667 270° West 370 426 32,000  Level Toronto Center
Tue 12:52:50 PM 43.0500 -80.7333 270° West 370 426 32,000  Level Toronto Center
Tue 12:53:50 PM 43.0333 -80.8500 259° West 370 426 32,000  Level Toronto Center
Tue 12:54:50 PM 43.0167 -80.9833 260° West 370 426 32,000  Level Toronto Center
Tue 12:55:50 PM 43.0167 -81.1333 270° West 370 426 32,000  Level Toronto Center
Tue 12:56:50 PM 43.0167 -81.2667 270° West 370 426 32,000  Level Toronto Center
Tue 12:57:50 PM 43.0167 -81.4167 270° West 370 426 32,000  Level Toronto Center
Tue 12:58:50 PM 43.0167 -81.5667 270° West 370 426 32,000  Level Toronto Center
Tue 12:59:50 PM 43.0167 -81.7000 270° West 370 426 32,000  Level Toronto Center
Tue 01:00:50 PM 43.0167 -81.8500 270° West 370 426 32,000  Level Toronto Center
Tue 01:01:50 PM 43.0000 -81.9833 260° West 370 426 32,000  Level Toronto Center
Tue 01:02:50 PM 43.0000 -82.1167 270° West 370 426 32,000  Level Toronto Center
Tue 01:03:50 PM 43.0000 -82.2833 270° West 370 426 32,000  Level Toronto Center
Tue 01:04:50 PM 43.0000 -82.4167 270° West 380 437 32,000  Level Toronto Center
Tue 01:05:50 PM 43.0000 -82.5667 270° West 380 437 32,000  Level Toronto Center
Tue 01:06:50 PM 42.9833 -82.7167 261° West 380 437 32,000  Level Toronto Center
Tue 01:07:09 PM 43.0003 -82.7578 299° West 382 440 32,000  Level Cleveland Center
Tue 01:08:09 PM 42.9956 -82.8908 267° West 389 448 32,000  Level Cleveland Center
Tue 01:09:09 PM 42.9928 -83.0300 268° West 381 438 32,000 -400 Level Cleveland Center
Tue 01:10:09 PM 43.0172 -83.1472 286° West 338 389 31,200 -1,000 Descending Cleveland Center
Tue 01:11:09 PM 43.0631 -83.2431 303° West 317 365 30,000 -600 Descending Cleveland Center
Tue 01:12:09 PM 43.0897 -83.3494 289° West 304 350 30,000  Level Cleveland Center
Tue 01:13:09 PM 43.0533 -83.4756 248° West 308 354 30,000  Level Cleveland Center
Tue 01:14:09 PM 43.0103 -83.6100 246° West 348 400 30,000  Level Cleveland Center
Tue 01:15:09 PM 42.9672 -83.7411 246° West 372 428 30,000  Level Cleveland Center
Tue 01:16:09 PM 42.9528 -83.8881 262° West 380 437 30,000  Level Cleveland Center
Tue 01:17:09 PM 42.9381 -84.0347 262° West 385 443 30,000  Level Cleveland Center
Tue 01:18:09 PM 42.9208 -84.1814 261° West 392 451 30,000  Level Cleveland Center
Tue 01:19:09 PM 42.9053 -84.3419 263° West 392 451 30,000  Level Cleveland Center
Tue 01:20:03 PM 42.8967 -84.4569 264° West 401 461 30,000  Level Chicago Center
Tue 01:21:05 PM 42.8808 -84.6072 262° West 403 464 30,000  Level Chicago Center
Tue 01:22:07 PM 42.8631 -84.7883 262° West 403 464 30,000  Level Chicago Center
Tue 01:23:09 PM 42.8489 -84.9244 262° West 371 427 30,000  Level Chicago Center
Tue 01:24:11 PM 42.8353 -85.0544 262° West 350 403 30,000  Level Chicago Center
Tue 01:25:13 PM 42.8214 -85.1831 262° West 344 396 30,000 -532 Level Chicago Center
Tue 01:26:15 PM 42.8072 -85.3139 262° West 349 402 28,900 -1,258 Descending Chicago Center
Tue 01:27:17 PM 42.7928 -85.4433 261° West 347 399 27,400 -1,839 Descending Chicago Center
Tue 01:28:19 PM 42.7697 -85.5900 258° West 332 382 25,100 -2,081 Descending Chicago Center
Tue 01:29:21 PM 42.7481 -85.7089 256° West 324 373 23,100 -1,935 Descending Chicago Center
Tue 01:30:23 PM 42.7281 -85.8242 257° West 316 364 21,100 -1,488 Descending Chicago Center
Tue 01:31:26 PM 42.7072 -85.9350 256° West 304 350 20,000 -528 Descending Chicago Center
Tue 01:32:28 PM 42.6847 -86.0564 256° West 323 372 20,000  Level Chicago Center
Tue 01:33:30 PM 42.6614 -86.1892 257° West 355 409 20,000 -484 Level Chicago Center
Tue 01:34:32 PM 42.6358 -86.3219 255° West 361 415 19,000 -1,452 Descending Chicago Center
Tue 01:35:34 PM 42.6125 -86.4481 256° West 347 399 17,000 -2,032 Descending Chicago Center
Tue 01:36:36 PM 42.5858 -86.5842 255° West 312 359 14,800 -1,935 Descending Chicago Center
Tue 01:37:38 PM 42.5664 -86.6981 257° West 311 358 13,000 -1,597 Descending Chicago Center
Tue 01:38:40 PM 42.5383 -86.8106 251° West 314 361 11,500 -1,355 Descending Chicago Center
Tue 01:39:42 PM 42.5086 -86.9164 249° West 304 350 10,200 -677 Descending Chicago Center
Tue 01:40:44 PM 42.4792 -87.0236 250° West 304 350 10,100 -97 Descending Chicago Center
Tue 01:41:46 PM 42.4494 -87.1322 250° West 306 352 10,000 -919 Descending Chicago Center
Tue 01:42:48 PM 42.4189 -87.2419 249° West 261 300 8,200 -1,452 Descending Chicago Center
Tue 01:43:50 PM 42.3942 -87.3325 250° West 257 296 7,000 -1,016 Descending Chicago Center
Tue 01:44:52 PM 42.3686 -87.4206 249° West 257 296 6,100 -484 Descending Chicago Center
Tue 01:45:54 PM 42.2864 -87.4539 197° South 274 315 6,000  Descending Chicago Center
Tue 01:46:56 PM 42.2133 -87.4783 194° South 271 312 6,100 -145 Climbing Chicago Center
Tue 01:47:58 PM 42.1422 -87.5003 193° South 260 299 5,700 -871 Descending Chicago Center
Tue 01:49:00 PM 42.0836 -87.5281 199° South 232 267 4,300 -768 Descending Chicago Center
Tue 01:50:03 PM 42.0333 -87.6000 227° Southwest 219 252 4,100 -186 Descending Chicago TRACON
Tue 01:51:09 PM 42.0000 -87.6667 236° Southwest 213 245 3,900 -571 Descending Chicago TRACON
Tue 01:52:09 PM 42.0000 -87.7500 270° West 207 238 2,900 -1,000 Descending Chicago TRACON
Tue 01:53:15 PM 42.0000 -87.8333 270° West 196 226 1,800 -950 Descending Chicago TRACON
Tue 01:54:09 PM 42.0000 -87.8833 270° West 146 168 1,000 -889 Descending Chicago TRACON

Login

Don't have an account? Register now (free) for customized features, flight alerts, and more!